Location: Burbank
(38.7788°N, 114.0429°W)
Time: 20:48:32
(UTC+00:00)

Vanguard 2 - Pass Details

Date: 11 May 2026
Orbit: 553 x 2894 km, 32.9° (Epoch: 6 June)

Event Time Altitude Azimuth Distance (km) Brightness Sun altitude
Rises 11:36:59 0° 249° (WSW) 6,725 - -9.5°
Exits shadow 11:41:06 - 247° (WSW) 5,795 11.3 -8.8°
Reaches altitude 10° 11:41:34 10° 247° (WSW) 5,690 11.3 -8.8°
Maximum altitude 11:58:27 65° 171° (S) 2,599 10.1 -5.9°
Drops below altitude 10° 12:10:13 10° 93° (E) 4,118 12.4 -3.9°
Sets 12:12:59 0° 90° (E) 4,838 12.9 -3.4°
